Time,TemperatureF,DewpointF,PressureIn,WindDirection,WindDirectionDegrees,WindSpeedMPH,WindSpeedGustMPH,Humidity,HourlyPrecipIn,Conditions,Clouds,dailyrainin,SoftwareType,DateUTC
2013-04-11 00:02:00,33.0,31.0,-100.00,SW,230,13.0,16.0,89,-99.99,,,-99.99,,2013-04-11 06:02:00,
2013-04-11 00:12:00,33.0,31.0,-100.00,SW,230,13.0,16.0,89,-99.99,,,-99.99,,2013-04-11 06:12:00,
2013-04-11 01:22:00,33.0,30.0,-100.00,SW,235,13.0,21.0,89,-99.99,,,-99.99,,2013-04-11 07:22:00,
2013-04-11 01:32:00,33.0,30.0,-100.00,SW,235,13.0,21.0,89,-99.99,,,-99.99,,2013-04-11 07:32:00,
2013-04-11 01:42:00,33.0,27.0,-100.00,WSW,255,11.0,17.0,79,-99.99,,,-99.99,,2013-04-11 07:42:00,
2013-04-11 01:52:00,33.0,27.0,-100.00,WSW,255,11.0,17.0,79,-99.99,,,-99.99,,2013-04-11 07:52:00,
2013-04-11 02:02:00,33.0,27.0,-100.00,WSW,255,11.0,17.0,79,-99.99,,,-99.99,,2013-04-11 08:02:00,
2013-04-11 02:12:00,33.0,27.0,-100.00,WSW,255,11.0,17.0,79,-99.99,,,-99.99,,2013-04-11 08:12:00,
2013-04-11 02:22:00,33.0,28.0,-100.00,SW,230,16.0,19.0,79,-99.99,,,-99.99,,2013-04-11 08:22:00,
2013-04-11 02:32:00,33.0,28.0,-100.00,SW,230,16.0,19.0,79,-99.99,,,-99.99,,2013-04-11 08:32:00,
2013-04-11 02:42:00,33.0,28.0,-100.00,SW,230,16.0,19.0,79,-99.99,,,-99.99,,2013-04-11 08:42:00,
2013-04-11 03:50:00,32.0,27.0,-100.00,SW,220,11.0,13.0,80,-99.99,,,-99.99,,2013-04-11 09:50:00,
2013-04-11 04:23:00,32.0,27.0,-100.00,SW,220,11.0,13.0,80,-99.99,,,-99.99,,2013-04-11 10:23:00,
2013-04-11 04:32:00,32.0,27.0,-100.00,SW,220,11.0,13.0,80,-99.99,,,-99.99,,2013-04-11 10:32:00,
2013-04-11 04:42:00,32.0,27.0,-100.00,SW,220,11.0,13.0,80,-99.99,,,-99.99,,2013-04-11 10:42:00,
2013-04-11 05:12:00,32.0,26.0,-100.00,SW,230,14.0,18.0,79,-99.99,,,-99.99,,2013-04-11 11:12:00,
2013-04-11 05:22:00,32.0,26.0,-100.00,SW,225,13.0,16.0,80,-99.99,,,-99.99,,2013-04-11 11:22:00,
2013-04-11 05:32:00,32.0,26.0,-100.00,SW,225,13.0,16.0,80,-99.99,,,-99.99,,2013-04-11 11:32:00,
2013-04-11 05:42:00,32.0,26.0,-100.00,SW,225,12.0,15.0,79,-99.99,,,-99.99,,2013-04-11 11:42:00,
2013-04-11 05:52:00,32.0,26.0,-100.00,SW,225,12.0,15.0,79,-99.99,,,-99.99,,2013-04-11 11:52:00,
2013-04-11 06:02:00,32.0,26.0,-100.00,SW,225,12.0,15.0,79,-99.99,,,-99.99,,2013-04-11 12:02:00,
2013-04-11 06:12:00,32.0,26.0,-100.00,SW,225,12.0,15.0,79,-99.99,,,-99.99,,2013-04-11 12:12:00,
2013-04-11 06:22:00,32.0,26.0,-100.00,SW,225,9.0,14.0,79,-99.99,,,-99.99,,2013-04-11 12:22:00,
2013-04-11 06:32:00,32.0,26.0,-100.00,SW,225,9.0,14.0,79,-99.99,,,-99.99,,2013-04-11 12:32:00,
2013-04-11 06:42:00,32.0,26.0,-100.00,SW,225,9.0,14.0,79,-99.99,,,-99.99,,2013-04-11 12:42:00,
2013-04-11 07:12:00,31.0,25.0,-100.00,SW,230,9.0,12.0,77,-99.99,,,-99.99,,2013-04-11 13:12:00,
2013-04-11 07:22:00,31.0,25.0,-100.00,SW,230,12.0,15.0,78,-99.99,,,0.00,,2013-04-11 13:22:00,
2013-04-11 07:32:00,31.0,25.0,-100.00,SW,230,12.0,15.0,78,-99.99,,,0.00,,2013-04-11 13:32:00,
2013-04-11 07:42:00,31.0,25.0,-100.00,SW,230,9.0,12.0,77,-99.99,,,-99.99,,2013-04-11 13:42:00,
2013-04-11 07:53:00,31.0,25.0,-100.00,SW,230,9.0,12.0,77,-99.99,,,-99.99,,2013-04-11 13:53:00,
2013-04-11 08:02:00,31.0,25.0,-100.00,SW,230,9.0,12.0,77,-99.99,,,-99.99,,2013-04-11 14:02:00,
2013-04-11 08:22:00,31.0,25.0,-100.00,SW,230,14.0,16.0,78,-99.99,,,-99.99,,2013-04-11 14:22:00,
2013-04-11 08:32:00,31.0,25.0,-100.00,SW,230,14.0,16.0,78,-99.99,,,-99.99,,2013-04-11 14:32:00,
2013-04-11 08:42:00,31.0,25.0,-100.00,SW,235,16.0,17.0,77,-99.99,,,-99.99,,2013-04-11 14:42:00,
2013-04-11 08:52:00,31.0,25.0,-100.00,SW,235,16.0,17.0,77,-99.99,,,-99.99,,2013-04-11 14:52:00,
2013-04-11 09:02:00,31.0,25.0,-100.00,SW,235,16.0,17.0,77,-99.99,,,-99.99,,2013-04-11 15:02:00,
2013-04-11 09:12:00,31.0,25.0,-100.00,SW,235,16.0,17.0,77,-99.99,,,-99.99,,2013-04-11 15:12:00,
2013-04-11 11:52:00,33.0,21.0,-100.00,SW,230,15.0,21.0,62,-99.99,,,0.00,,2013-04-11 17:52:00,
2013-04-11 12:02:00,33.0,21.0,-100.00,SW,230,15.0,21.0,62,-99.99,,,0.00,,2013-04-11 18:02:00,
2013-04-11 12:13:00,33.0,22.0,-100.00,SW,230,10.0,20.0,62,-99.99,,,0.00,,2013-04-11 18:13:00,
2013-04-11 12:22:00,33.0,22.0,-100.00,SW,230,10.0,20.0,62,-99.99,,,0.00,,2013-04-11 18:22:00,
2013-04-11 12:32:00,33.0,22.0,-100.00,SW,230,10.0,20.0,62,-99.99,,,0.00,,2013-04-11 18:32:00,
2013-04-11 12:41:00,35.0,20.0,-100.00,SW,220,16.0,20.0,53,-99.99,,,0.00,,2013-04-11 18:41:00,
2013-04-11 12:42:00,33.0,22.0,-100.00,SW,230,10.0,20.0,62,-99.99,,,0.00,,2013-04-11 18:42:00,
2013-04-11 12:52:00,34.0,21.0,-100.00,WSW,255,12.0,21.0,60,-99.99,,,0.00,,2013-04-11 18:52:00,
2013-04-11 13:03:00,34.0,21.0,-100.00,WSW,255,12.0,21.0,60,-99.99,,,0.00,,2013-04-11 19:03:00,
2013-04-11 13:13:00,35.0,20.0,-100.00,SW,220,16.0,20.0,53,-99.99,,,0.00,,2013-04-11 19:13:00,
2013-04-11 13:22:00,35.0,20.0,-100.00,SW,220,16.0,20.0,53,-99.99,,,0.00,,2013-04-11 19:22:00,
2013-04-11 13:32:00,35.0,20.0,-100.00,SW,220,16.0,20.0,53,-99.99,,,0.00,,2013-04-11 19:32:00,
2013-04-11 14:13:00,36.0,19.0,-100.00,West,275,15.0,19.0,51,-99.99,,,0.00,,2013-04-11 20:13:00,
2013-04-11 14:22:00,36.0,19.0,-100.00,West,275,15.0,19.0,51,-99.99,,,0.00,,2013-04-11 20:22:00,
2013-04-11 14:33:00,36.0,19.0,-100.00,West,275,15.0,19.0,51,-99.99,,,0.00,,2013-04-11 20:33:00,
2013-04-11 14:42:00,36.0,19.0,-100.00,West,275,15.0,19.0,51,-99.99,,,0.00,,2013-04-11 20:42:00,
2013-04-11 14:52:00,35.0,20.0,-100.00,WSW,240,17.0,21.0,53,-99.99,,,0.00,,2013-04-11 20:52:00,
2013-04-11 15:02:00,35.0,20.0,-100.00,WSW,240,17.0,21.0,53,-99.99,,,0.00,,2013-04-11 21:02:00,
2013-04-11 15:12:00,35.0,22.0,-100.00,WSW,255,11.0,19.0,59,-99.99,,,0.00,,2013-04-11 21:12:00,
2013-04-11 15:22:00,35.0,22.0,-100.00,WSW,255,11.0,19.0,59,-99.99,,,0.00,,2013-04-11 21:22:00,
2013-04-11 15:33:00,35.0,22.0,-100.00,WSW,255,11.0,19.0,59,-99.99,,,0.00,,2013-04-11 21:33:00,
2013-04-11 15:42:00,35.0,22.0,-100.00,WSW,255,11.0,19.0,59,-99.99,,,0.00,,2013-04-11 21:42:00,
2013-04-11 15:43:00,36.0,21.0,-100.00,West,260,12.0,22.0,55,-99.99,,,0.00,,2013-04-11 21:43:00,
2013-04-11 16:13:00,36.0,21.0,-100.00,West,260,12.0,22.0,55,-99.99,,,0.00,,2013-04-11 22:13:00,
2013-04-11 16:23:00,36.0,21.0,-100.00,West,260,12.0,22.0,55,-99.99,,,0.00,,2013-04-11 22:23:00,
2013-04-11 16:32:00,36.0,21.0,-100.00,West,260,12.0,22.0,55,-99.99,,,0.00,,2013-04-11 22:32:00,
2013-04-11 16:52:00,36.0,21.0,-100.00,WSW,250,15.0,24.0,54,-99.99,,,0.00,,2013-04-11 22:52:00,
2013-04-11 17:03:00,36.0,21.0,-100.00,WSW,250,15.0,24.0,54,-99.99,,,0.00,,2013-04-11 23:03:00,
2013-04-11 17:12:00,35.0,21.0,-100.00,WSW,255,17.0,26.0,56,-99.99,,,0.00,,2013-04-11 23:12:00,
2013-04-11 17:22:00,35.0,21.0,-100.00,WSW,255,17.0,26.0,56,-99.99,,,0.00,,2013-04-11 23:22:00,
2013-04-11 17:32:00,35.0,21.0,-100.00,WSW,255,17.0,26.0,56,-99.99,,,0.00,,2013-04-11 23:32:00,
2013-04-11 17:42:00,35.0,21.0,-100.00,WSW,255,17.0,26.0,56,-99.99,,,0.00,,2013-04-11 23:42:00,
2013-04-11 18:12:00,33.0,19.0,-100.00,WSW,245,17.0,22.0,55,-99.99,,,-99.99,,2013-04-12 00:12:00,
2013-04-11 18:22:00,33.0,19.0,-100.00,WSW,245,17.0,22.0,55,-99.99,,,-99.99,,2013-04-12 00:22:00,
2013-04-11 18:32:00,33.0,19.0,-100.00,WSW,245,17.0,22.0,55,-99.99,,,-99.99,,2013-04-12 00:32:00,
2013-04-11 18:42:00,33.0,19.0,-100.00,WSW,245,17.0,22.0,55,-99.99,,,-99.99,,2013-04-12 00:42:00,
2013-04-11 19:12:00,32.0,19.0,-100.00,West,260,18.0,24.0,57,-99.99,,,0.00,,2013-04-12 01:12:00,
2013-04-11 19:22:00,32.0,19.0,-100.00,West,260,18.0,24.0,57,-99.99,,,0.00,,2013-04-12 01:22:00,
2013-04-11 19:32:00,32.0,19.0,-100.00,West,260,18.0,24.0,57,-99.99,,,0.00,,2013-04-12 01:32:00,
2013-04-11 19:42:00,32.0,19.0,-100.00,West,260,18.0,24.0,57,-99.99,,,0.00,,2013-04-12 01:42:00,
2013-04-11 19:52:00,32.0,19.0,-100.00,West,275,10.0,21.0,57,-99.99,,,0.00,,2013-04-12 01:52:00,
2013-04-11 20:02:00,32.0,19.0,-100.00,West,275,10.0,21.0,57,-99.99,,,0.00,,2013-04-12 02:02:00,
2013-04-11 20:12:00,32.0,21.0,-100.00,WNW,290,10.0,12.0,63,-99.99,,,0.00,,2013-04-12 02:12:00,
2013-04-11 20:22:00,32.0,21.0,-100.00,WNW,290,10.0,12.0,63,-99.99,,,0.00,,2013-04-12 02:22:00,
2013-04-11 20:32:00,32.0,21.0,-100.00,WNW,290,10.0,12.0,63,-99.99,,,0.00,,2013-04-12 02:32:00,
2013-04-11 20:42:00,32.0,21.0,-100.00,WNW,290,10.0,12.0,63,-99.99,,,0.00,,2013-04-12 02:42:00,
2013-04-11 20:52:00,31.0,22.0,-100.00,NW,310,10.0,16.0,70,-99.99,,,0.00,,2013-04-12 02:52:00,
2013-04-11 21:02:00,31.0,22.0,-100.00,NW,310,10.0,16.0,70,-99.99,,,0.00,,2013-04-12 03:02:00,
2013-04-11 21:12:00,31.0,22.0,-100.00,NW,310,10.0,16.0,70,-99.99,,,0.00,,2013-04-12 03:12:00,
2013-04-11 22:13:00,29.0,20.0,-100.00,West,275,8.0,13.0,68,-99.99,,,0.00,,2013-04-12 04:13:00,
2013-04-11 22:22:00,29.0,20.0,-100.00,West,275,8.0,13.0,68,-99.99,,,0.00,,2013-04-12 04:22:00,
2013-04-11 22:33:00,29.0,20.0,-100.00,West,275,8.0,13.0,68,-99.99,,,0.00,,2013-04-12 04:33:00,
2013-04-11 22:42:00,28.0,19.0,-100.00,WSW,255,6.0,9.0,68,-99.99,,,0.00,,2013-04-12 04:42:00,
2013-04-11 22:43:00,29.0,20.0,-100.00,West,275,8.0,13.0,68,-99.99,,,0.00,,2013-04-12 04:43:00,
2013-04-11 22:52:00,29.0,19.0,-100.00,West,270,9.0,12.0,67,-99.99,,,0.00,,2013-04-12 04:52:00,
2013-04-11 23:03:00,29.0,19.0,-100.00,West,270,9.0,12.0,67,-99.99,,,0.00,,2013-04-12 05:03:00,
2013-04-11 23:12:00,28.0,19.0,-100.00,WSW,255,6.0,9.0,68,-99.99,,,0.00,,2013-04-12 05:12:00,
2013-04-11 23:22:00,28.0,19.0,-100.00,WSW,255,6.0,9.0,68,-99.99,,,0.00,,2013-04-12 05:22:00,
2013-04-11 23:32:00,28.0,19.0,-100.00,WSW,255,6.0,9.0,68,-99.99,,,0.00,,2013-04-12 05:32:00,
2013-04-11 23:52:00,28.0,19.0,-100.00,SW,225,8.0,10.0,69,-99.99,,,0.00,,2013-04-12 05:52:00,